Regional Weather Roundup
Issued by NWS

Home | Current Version | Previous Version | Graphics & Text | Print | Product List | Glossary On
Versions: 1 2 3 4 5 6 7 8 9 10 11 12 13 14 15 16 17 18 19 20 21 22 23 24 25 26 27 28
000
ASUS45 KSLC 210010
RWRUT

UTAH REGIONAL WEATHER ROUNDUP
NATIONAL WEATHER SERVICE SALT LAKE CITY UT
600 PM MDT THU JUL 20 2017

UTZ001>011-023>025-210100-

NORTHERN UTAH

CITY           SKY/WX    TMP DP  RH WIND       PRES   REMARKS
BRIGHAM CITY   MOSUNNY   92  49  22 S9        29.97S
DUGWAY         PTSUNNY   92  48  21 S18G24    29.96F
HILL AFB       PTSUNNY   90  52  27 SE15      30.02F
LOGAN          MOSUNNY   93  54  26 S13       29.98F HX  91
OGDEN          CLOUDY    92  53  26 SE12      29.97F
SALT LAKE CITY PTSUNNY   96  53  23 SE16      29.96F HX  93
TOOELE VALLEY  PTSUNNY   91  54  27 SE13      29.97F
WENDOVER       PTSUNNY   96  50  20 SE14      29.93F HX  93
HEBER CITY     MOSUNNY   90  46  22 SW12G18   30.10S
WEST JORDAN    PTSUNNY   91  63  39 SE13      30.00F HX  91

$$

UTZ011>015-024>027-210100-

CENTRAL/NORTHEAST UTAH

CITY           SKY/WX    TMP DP  RH WIND       PRES   REMARKS
PROVO AIRPORT  PTSUNNY   91  53  27 S5        30.02F
MOAB/CANYONLAN MOSUNNY   93  49  22 W20       29.96F THUNDER HX  90
DELTA          PTSUNNY   90  46  22 S13       30.04F
PRICE          CLOUDY    75  57  53 S7        30.17F
ROOSEVELT      CLOUDY    79  55  44 SW8       30.11S
VERNAL         CLOUDY    85  56  37 SW9       30.07S

$$

UTZ013>016-019>022-027-210100-

SOUTHERN UTAH

CITY           SKY/WX    TMP DP  RH WIND       PRES   REMARKS
BRYCE CANYON   TSTM      70  56  61 N10       30.30F
CEDAR CITY     MOSUNNY   84  50  30 SW12      30.14F
MILFORD        PTSUNNY   91  52  26 S14       30.06S
ST GEORGE      PTCLDY    98  51  20 W14G20    29.92F HX  95
HANKSVILLE     PTSUNNY   95  43  16 NW12G23   30.00F HX  91
BLANDING       MOSUNNY   89  46  22 S7        30.19F

$$

REGIONAL REPORTS     COLORADO/ARIZONA

CITY           SKY/WX    TMP DP  RH WIND       PRES   REMARKS
CRAIG, CO      CLOUDY    83  45  26 SW10      30.15F
GRAND JUNCTION LGT RAIN  82  54  37 S12       30.07S
RIFLE, CO      TSTM      72  56  57 SE21      30.13R
MONTROSE, CO   CLOUDY    75  54  47 S22       30.20R
CORTEZ, CO     CLOUDY    72  59  63 SE5       30.17F
COLORADO CITY    N/A     91  54  27 W9        30.12F
PAGE, AZ       PTSUNNY   92  53  26 SE14      30.02F
GRAND CANYON   PTSUNNY   69  57  65 SW16G26   30.29R
KINGMAN, AZ    MOSUNNY   92  59  33 SE22G31   30.02F HX  91
FLAGSTAFF, AZ  CLOUDY    65  54  67 VRB7      30.30F

$$

REGIONAL REPORTS    NEVADA/IDAHO/WYOMING

CITY           SKY/WX    TMP DP  RH WIND       PRES   REMARKS
LAS VEGAS, NV  PTSUNNY   98  53  22 S9        29.87F HX  96
ELY, NY        MOSUNNY   89  48  24 VRB5      30.12S
ELKO, NV       SUNNY     93  19   7 W14       30.04F
POCATELLO, ID  SUNNY     91  31  11 SW14      30.01F
BURLEY, ID     SUNNY     86  37  17 W9G16     29.99F
FORT BRIDGER,    N/A     89  45  22 W17G29    30.21F
EVANSTON, WY   CLOUDY    82  50  32 W20       30.21F
ROCK SPRINGS,  CLOUDY    86  42  21 SW14      30.14F
KEMMERER, WY     N/A     81  41  24 W21G29    30.21S

$$




USA.gov is the U.S. government's official web portal to all federal, state and local government web resources and services.